Bad Axe, MI

4:47 AM EST on December 06, 2016 (GMT -0500)
Huron County Memorial

Weather History for KBAX - December, 2012

Change the Weather History Date:

Saturday, December 22, 2012

  Actual Average (KP58) Record (KP58)
Temperature  
Mean Temperature 28 °F -  
Max Temperature 30 °F 30 °F 50 °F (2006)
Min Temperature 27 °F 20 °F -2 °F (2000)
Degree Days  
Heating Degree Days 36    
Moisture  
Dew Point 23 °F    
Average Humidity 77    
Maximum Humidity 83    
Minimum Humidity 72    
Precipitation  
Precipitation 0.00 in - - ()
Sea Level Pressure  
Sea Level Pressure 29.94 in    
Wind  
Wind Speed 16 mph (WNW)    
Max Wind Speed 25 mph    
Max Gust Speed 38 mph    
Visibility 10 miles    
Events      
Averages and records for this station are not official NWS values.
T = Trace of Precipitation, MM = Missing Value Source: NWS Daily Summary

Daily Weather History Graph

Daily Weather History Graph

Search for Another Location

Airport or City:

Trip Planner

Search our weather history database for the weather conditions in past years. The results will help you decide how hot, cold, wet, or windy it might be!

Date:

Astronomy

Dec. 22, 2012 Rise Set
Actual Time 8:03 AM EST 4:58 PM EST
Civil Twilight 7:30 AM EST 5:31 PM EST
Nautical Twilight 6:54 AM EST 6:07 PM EST
Astronomical Twilight 6:19 AM EST 6:42 PM EST
Moon 1:20 PM EST (12/22) 2:41 AM EST (12/22)
Length of Visible Light 10h 00m
Length of Day
8h 54m
Waxing Gibbous, 73% of the Moon is Illuminated
Dec 22
Waxing Gibbous
Dec 28
Full
Jan 4
Last Quarter
Jan 11
New
Jan 18
First Quarter

Hourly Weather History & Observations

Time (EST) Temp. Windchill Dew Point Humidity Pressure Visibility Wind Dir Wind Speed Gust Speed Precip Events Conditions
12:14 AM 28.8 °F 15.5 °F 22.6 °F 78% 29.79 in 7.0 mi NW 20.7 mph 34.5 mph N/A   Overcast
12:34 AM 28.9 °F 14.5 °F 23.0 °F 78% 29.80 in 10.0 mi NW 25.3 mph 33.4 mph N/A   Overcast
12:54 AM 29.1 °F 15.4 °F 22.6 °F 77% 29.82 in 7.0 mi NW 23.0 mph 38.0 mph N/A   Overcast
1:14 AM 28.9 °F 15.1 °F 22.1 °F 76% 29.82 in 7.0 mi NW 23.0 mph 36.8 mph N/A   Overcast
1:34 AM 28.9 °F 15.8 °F 21.7 °F 74% 29.84 in 10.0 mi NW 20.7 mph 29.9 mph N/A   Overcast
1:54 AM 28.8 °F 14.6 °F 21.7 °F 75% 29.84 in 7.0 mi NW 24.2 mph 35.7 mph N/A   Overcast
2:14 AM 29.1 °F 16.0 °F 22.5 °F 76% 29.85 in 10.0 mi NW 20.7 mph 25.3 mph N/A   Overcast
2:34 AM 29.1 °F 15.4 °F 22.5 °F 76% 29.87 in 10.0 mi NW 23.0 mph 33.4 mph N/A   Overcast
2:54 AM 28.4 °F 14.4 °F 20.8 °F 73% 29.87 in 10.0 mi NW 23.0 mph 31.1 mph N/A   Overcast
3:15 AM 27.5 °F 13.5 °F 19.8 °F 73% 29.87 in 10.0 mi NW 21.9 mph 29.9 mph N/A   Mostly Cloudy
3:34 AM 27.5 °F 15.0 °F 20.1 °F 74% 29.88 in 10.0 mi NW 17.3 mph - N/A   Mostly Cloudy
3:54 AM 28.0 °F 13.9 °F 21.2 °F 76% 29.88 in 10.0 mi NW 23.0 mph 29.9 mph N/A   Overcast
4:15 AM 28.2 °F 14.8 °F 20.8 °F 74% 29.89 in 10.0 mi NW 20.7 mph 29.9 mph N/A   Overcast
4:34 AM 28.2 °F 15.2 °F 21.2 °F 75% 29.89 in 10.0 mi NW 19.6 mph 27.6 mph N/A   Overcast
4:54 AM 28.4 °F 16.6 °F 21.6 °F 76% 29.90 in 10.0 mi NW 16.1 mph 23.0 mph N/A   Overcast
5:14 AM 28.4 °F 16.2 °F 21.6 °F 76% 29.90 in 10.0 mi NW 17.3 mph 23.0 mph N/A   Overcast
5:34 AM 28.4 °F 17.0 °F 21.2 °F 74% 29.90 in 10.0 mi NW 15.0 mph 25.3 mph N/A   Overcast
5:54 AM 28.4 °F 17.0 °F 21.9 °F 77% 29.91 in 10.0 mi WNW 15.0 mph 24.2 mph N/A   Overcast
6:14 AM 28.4 °F 15.8 °F 21.4 °F 75% 29.92 in 10.0 mi WNW 18.4 mph 26.5 mph N/A   Overcast
6:34 AM 28.4 °F 17.0 °F 21.6 °F 76% 29.93 in 10.0 mi WNW 15.0 mph 26.5 mph N/A   Overcast
6:54 AM 28.4 °F 15.4 °F 21.2 °F 74% 29.94 in 10.0 mi NW 19.6 mph 28.8 mph N/A   Overcast
7:14 AM 28.4 °F 16.6 °F 21.2 °F 74% 29.94 in 10.0 mi NW 16.1 mph 20.7 mph N/A   Overcast
7:34 AM 28.2 °F 18.3 °F 21.2 °F 75% 29.95 in 10.0 mi NW 11.5 mph 21.9 mph N/A   Overcast
7:55 AM 28.2 °F 18.3 °F 21.9 °F 77% 29.95 in 10.0 mi NW 11.5 mph - N/A   Overcast
8:14 AM 28.4 °F 16.2 °F 21.6 °F 76% 29.95 in 10.0 mi NW 17.3 mph 25.3 mph N/A   Overcast
8:34 AM 28.4 °F 16.6 °F 21.4 °F 75% 29.96 in 10.0 mi NW 16.1 mph 24.2 mph N/A   Overcast
8:55 AM 28.4 °F 17.0 °F 21.7 °F 76% 29.97 in 10.0 mi NW 15.0 mph - N/A   Overcast
9:14 AM 28.4 °F 16.2 °F 22.1 °F 77% 29.97 in 10.0 mi NW 17.3 mph - N/A   Overcast
9:34 AM 28.8 °F 17.5 °F 22.1 °F 76% 29.97 in 10.0 mi NW 15.0 mph 18.4 mph N/A   Overcast
9:55 AM 28.9 °F 17.7 °F 22.1 °F 76% 29.99 in 10.0 mi NW 15.0 mph 20.7 mph N/A   Overcast
10:14 AM 29.1 °F 18.9 °F 22.6 °F 77% 29.99 in 10.0 mi NW 12.7 mph 17.3 mph N/A   Overcast
10:34 AM 29.3 °F 19.1 °F 23.0 °F 77% 29.99 in 10.0 mi NW 12.7 mph 16.1 mph N/A   Overcast
10:55 AM 29.3 °F 21.5 °F 23.0 °F 77% 30.00 in 10.0 mi NW 8.1 mph 17.3 mph N/A   Overcast
11:14 AM 29.8 °F 20.3 °F 23.4 °F 77% 29.99 in 10.0 mi WNW 11.5 mph 16.1 mph N/A   Overcast
11:34 AM 29.7 °F 18.6 °F 22.1 °F 73% 29.99 in 10.0 mi WNW 15.0 mph 24.2 mph N/A   Overcast
11:55 AM 30.0 °F 18.7 °F 22.1 °F 72% 29.98 in 10.0 mi NW 16.1 mph 21.9 mph N/A   Overcast
12:14 PM 30.0 °F 20.5 °F 22.1 °F 72% 29.97 in 10.0 mi WNW 11.5 mph - N/A   Overcast
12:34 PM 30.0 °F 19.5 °F 22.8 °F 75% 29.97 in 10.0 mi WNW 13.8 mph 20.7 mph N/A   Overcast
12:55 PM 29.8 °F 18.0 °F 22.1 °F 73% 29.97 in 10.0 mi WNW 17.3 mph 21.9 mph N/A   Overcast
1:14 PM 30.2 °F 20.8 °F 22.1 °F 72% 29.97 in 10.0 mi WNW 11.5 mph 20.7 mph N/A   Overcast
1:34 PM 30.2 °F 20.2 °F 22.8 °F 74% 29.97 in 10.0 mi WNW 12.7 mph 18.4 mph N/A   Overcast
1:55 PM 30.2 °F 20.2 °F 22.6 °F 73% 29.96 in 10.0 mi WNW 12.7 mph 20.7 mph N/A   Overcast
2:14 PM 30.2 °F 21.9 °F 23.5 °F 76% 29.96 in 10.0 mi West 9.2 mph - N/A   Overcast
2:35 PM 29.8 °F 18.0 °F 23.5 °F 77% 29.97 in 10.0 mi West 17.3 mph - N/A   Overcast
2:55 PM 30.0 °F 19.1 °F 23.2 °F 76% 29.97 in 10.0 mi West 15.0 mph 24.2 mph N/A   Overcast
3:14 PM 30.0 °F 19.5 °F 23.0 °F 75% 29.97 in 10.0 mi West 13.8 mph 23.0 mph N/A   Overcast
3:35 PM 30.0 °F 19.1 °F 23.0 °F 75% 29.97 in 10.0 mi West 15.0 mph 21.9 mph N/A   Overcast
3:55 PM 29.8 °F 19.8 °F 22.8 °F 75% 29.96 in 10.0 mi West 12.7 mph 17.3 mph N/A   Overcast
4:14 PM 29.7 °F 20.1 °F 22.6 °F 75% 29.97 in 10.0 mi West 11.5 mph 17.3 mph N/A   Overcast
4:35 PM 29.3 °F 20.8 °F 22.6 °F 76% 29.97 in 10.0 mi West 9.2 mph 16.1 mph N/A   Overcast
4:55 PM 29.1 °F 20.6 °F 22.3 °F 76% 29.97 in 10.0 mi West 9.2 mph - N/A   Mostly Cloudy
5:14 PM 28.9 °F 21.1 °F 22.3 °F 76% 29.98 in 10.0 mi West 8.1 mph - N/A   Scattered Clouds
5:35 PM 28.4 °F 22.2 °F 22.6 °F 79% 29.97 in 10.0 mi WSW 5.8 mph - N/A   Scattered Clouds
5:54 PM 28.4 °F 22.2 °F 23.4 °F 81% 29.98 in 10.0 mi West 5.8 mph - N/A   Mostly Cloudy
6:14 PM 28.8 °F 21.7 °F 23.4 °F 80% 29.98 in 10.0 mi West 6.9 mph - N/A   Overcast
6:35 PM 28.8 °F 22.6 °F 23.5 °F 81% 29.97 in 10.0 mi WSW 5.8 mph - N/A   Overcast
6:54 PM 28.8 °F 22.6 °F 23.5 °F 81% 29.98 in 10.0 mi WSW 5.8 mph - N/A   Overcast
7:14 PM 29.1 °F 23.0 °F 23.7 °F 80% 29.97 in 10.0 mi West 5.8 mph - N/A   Overcast
7:35 PM 28.9 °F 23.9 °F 23.9 °F 81% 29.97 in 10.0 mi WSW 4.6 mph - N/A   Overcast
7:54 PM 28.9 °F 23.9 °F 23.9 °F 81% 29.97 in 10.0 mi WSW 4.6 mph - N/A   Overcast
8:15 PM 28.8 °F 25.0 °F 23.9 °F 82% 29.97 in 10.0 mi WSW 3.5 mph - N/A   Overcast
8:34 PM 28.8 °F - 23.9 °F 82% 29.97 in 10.0 mi Calm Calm - N/A   Overcast
8:54 PM 28.4 °F 24.6 °F 23.7 °F 83% 29.97 in 10.0 mi WSW 3.5 mph - N/A   Overcast
9:15 PM 28.9 °F 25.2 °F 23.7 °F 81% 29.96 in 10.0 mi SW 3.5 mph - N/A   Overcast
9:34 PM 29.1 °F 24.1 °F 23.9 °F 81% 29.95 in 10.0 mi SW 4.6 mph - N/A   Overcast
9:54 PM 28.9 °F 23.9 °F 23.9 °F 81% 29.95 in 10.0 mi SW 4.6 mph - N/A   Overcast
10:15 PM 28.9 °F 22.8 °F 23.9 °F 81% 29.95 in 10.0 mi SW 5.8 mph - N/A   Overcast
10:34 PM 29.1 °F 23.0 °F 23.9 °F 81% 29.95 in 10.0 mi SW 5.8 mph - N/A   Overcast
10:54 PM 29.1 °F 23.0 °F 23.9 °F 81% 29.95 in 10.0 mi WSW 5.8 mph - N/A   Overcast
11:14 PM 29.3 °F 23.2 °F 24.3 °F 81% 29.95 in 10.0 mi WSW 5.8 mph - N/A   Overcast
11:34 PM 29.5 °F 22.5 °F 24.6 °F 82% 29.93 in 10.0 mi SW 6.9 mph - N/A   Overcast
11:54 PM 29.7 °F 21.3 °F 24.8 °F 82% 29.92 in 10.0 mi WSW 9.2 mph - N/A   Overcast